TimeCDT,TemperatureF,Dew PointF,Humidity,Sea Level PressureIn,VisibilityMPH,Wind Direction,Wind SpeedMPH,Gust SpeedMPH,PrecipitationIn,Events,Conditions,WindDirDegrees,DateUTC
12:53 AM,48.0,41.0,77,29.79,10.0,Calm,Calm,-,N/A,,Clear,0,2012-10-20 05:53:00
1:53 AM,45.0,39.9,82,29.81,10.0,Calm,Calm,-,N/A,,Clear,0,2012-10-20 06:53:00
2:53 AM,43.0,39.0,86,29.81,10.0,Calm,Calm,-,N/A,,Clear,0,2012-10-20 07:53:00
3:53 AM,42.1,37.9,85,29.81,10.0,Calm,Calm,-,N/A,,Clear,0,2012-10-20 08:53:00
4:53 AM,42.1,39.0,89,29.82,10.0,Calm,Calm,-,N/A,,Overcast,0,2012-10-20 09:53:00
5:53 AM,43.0,39.0,86,29.84,10.0,Calm,Calm,-,N/A,,Mostly Cloudy,0,2012-10-20 10:53:00
6:53 AM,41.0,37.0,86,29.85,10.0,Calm,Calm,-,N/A,,Clear,0,2012-10-20 11:53:00
7:53 AM,41.0,39.0,93,29.86,10.0,Calm,Calm,-,N/A,,Clear,0,2012-10-20 12:53:00
8:53 AM,45.0,42.1,90,29.88,10.0,Calm,Calm,-,N/A,,Partly Cloudy,0,2012-10-20 13:53:00
9:53 AM,48.9,43.0,80,29.90,10.0,Calm,Calm,-,N/A,,Clear,0,2012-10-20 14:53:00
10:53 AM,54.0,41.0,62,29.88,10.0,Calm,Calm,-,N/A,,Clear,0,2012-10-20 15:53:00
11:53 AM,57.9,42.1,56,29.87,10.0,Calm,Calm,-,N/A,,Clear,0,2012-10-20 16:53:00
12:53 PM,63.0,42.1,46,29.86,10.0,Variable,3.5,-,N/A,,Clear,0,2012-10-20 17:53:00
1:53 PM,66.0,42.1,42,29.83,10.0,South,5.8,-,N/A,,Clear,190,2012-10-20 18:53:00
2:53 PM,68.0,41.0,37,29.80,10.0,Calm,Calm,-,N/A,,Clear,0,2012-10-20 19:53:00
3:53 PM,68.0,39.9,36,29.79,10.0,South,5.8,-,N/A,,Clear,180,2012-10-20 20:53:00
4:53 PM,68.0,39.9,36,29.78,10.0,ESE,5.8,-,N/A,,Clear,120,2012-10-20 21:53:00
5:53 PM,66.0,39.0,37,29.78,10.0,East,4.6,-,N/A,,Clear,100,2012-10-20 22:53:00
6:53 PM,60.1,39.9,47,29.77,10.0,SE,4.6,-,N/A,,Clear,140,2012-10-20 23:53:00
7:53 PM,57.0,41.0,55,29.78,10.0,SE,5.8,-,N/A,,Clear,130,2012-10-21 00:53:00
8:53 PM,53.1,41.0,64,29.80,10.0,ESE,5.8,-,N/A,,Clear,120,2012-10-21 01:53:00
9:53 PM,54.0,41.0,62,29.81,10.0,SE,6.9,-,N/A,,Clear,130,2012-10-21 02:53:00
10:53 PM,52.0,41.0,66,29.81,10.0,ESE,4.6,-,N/A,,Clear,120,2012-10-21 03:53:00
11:53 PM,52.0,41.0,66,29.81,10.0,ESE,5.8,-,N/A,,Clear,120,2012-10-21 04:53:00